星链-5288 (STARLINK-5288 )

导读

STARLINK-5288是美国SpaceX星链星座的组网卫星,于2023年1月19日发射升空,属于星链互联网卫星群的一员。星链项目旨在构建全球卫星互联网,该卫星主要承担低轨宽带通信服务,可为全球偏远地区等提供互联网接入能力,目前已在近地轨道正常运行,推进星链全球覆盖的部署进程。

Basic Information
目录编号:
55307
目录名称:
STARLINK-5288
国际标识:
2023-010AQ
轨道中心:
EARTH
卫星名称:
星链-5288
卫星全名:
星链-5288 (STARLINK-5288 )
卫星状态:
在轨 (已飞行1243 天)
发射日期:
2023-01-19 UTC
国别 :
美国 (US)
星等 :
--
Orbit Information
数据来源 国际轨道数据 AOE轨道数据
星历时间 2026-06-15T06:15:56+0800
9小时前
查看轨道信息
2026-06-12T05:00:00+0800
3天前
查看轨道信息
半长轴 6950.197km 6950.179km
偏心率 0.000346 0.0003599
轨道倾角 69.999° 70.001°
近地点辐角 262.358° 264.856°
升交点赤经 119.444° 127.139°
平近点角 97.719° 193.534°
近地点 569.655km 569.54km
远地点 574.465km 574.544km
周期 96.107分钟 96.107分钟
每日圈数 14.983289 14.983348
Detailed Information
固有亮度:
5
最大亮度:
2.5
卫星平台:
Starlink v1.5
覆盖范围:
全球
运营商:
太空探索技术公司
运营商所在国:
美国
制造商(研发单位):
太空探索技术公司
制造商所在国:
美国
使用方式:
暂无
Satellite Introduction
星链(Starlink)计划是由太空探索技术公司(SpaceX)提出的一个巨型低轨卫星互联网星座项目,计划在2019年至2024年间在太空搭建由约1.2万颗卫星组成的“星链”网络,其中1584颗将部署在地球上空550千米处的近地轨道,并从2020年开始工作。该卫星仍在工作。
2D Orbit Map
3D Orbit Map
Orbit Altitude Analysis Chart
Orbit Inclination Analysis Chart
Orbit Comprehensive Analysis Chart
View Comprehensive Chart